MOLNIYA 1-56

Last updated on Jan. 25, 2020, 4:43 a.m. UTC

1 13890U 83019A   20024.24074781 -.00001230  00000-0  00000+0 0  9999
2 13890  63.2354 143.5626 7051312 260.5370  15.6219  1.99891598269117
UTC
Height (km)
Latitude
Longitude
Inclination
Orbital Period
UTC large
Height (km)
Speed (km/s)
/
Latitude / Longitude
Inclination (degrees)
Orbital Period (minutes)
Azimuth
Elevation
Range (km)
Doppler Factor
iOS Compass Heading
iOS Angle

Next 30 passes for location: Hong Kong

Rise time Rise Azimuth (degrees) Set time Set Azimuth (degrees) Duration Max altitude (degrees)

No matching passes for this satellites